Location: Carella
(45.8167°N, 9.2667°E)
Time: 18:52:35
(UTC+00:00)

Cosmos 1726 - Pass Details

Date: 30 March 2020
Orbit: 482 x 500 km, 82.5° (Epoch: 02 June)

Event Time Altitude Azimuth Distance (km) Brightness Sun altitude
Exits shadow 19:42:43 60° 95° (E) 580 2.1 -19.6°
Drops below altitude 10° 19:46:26 10° 16° (NNE) 1,717 5.0 -20.1°
Sets 19:48:34 0° 13° (NNE) 2,605 6.0 -20.5°
